Home > Weather > Pratteln > Past weeks

Flag for Switzerland Past Weather in Pratteln, Basel-Land, Switzerland — Yesterday and Last 2 Weeks

Now
61 °F

Broken clouds.


Feels Like: 61 °F
Forecast: 57 / 80 °F
Wind: 6 mph from Northwest

Location: Bale-Mulhouse

Current Time: Aug 30, 2016 at 9:24:12 AM

Latest Report: Aug 30, 2016 at 9:00 AM


Visibility: N/A

Pressure: 30.21 "Hg

Humidity: 88%

Dew Point: 57 °F

Location of PrattelnLocation

Past Weather in Pratteln — Graph

°F

Pratteln Temperature Yesterday

Maximum temperature yesterday: 75 °F (at 3:00 PM)
Minimum temperature yesterday: 59 °F (at 11:30 PM)
Average temperature yesterday: 71 °F

High & Low Weather Summary for the Past Weeks

 TemperatureHumidityPressure
High95 °F (Aug 26, 4:30 PM)100% (Aug 16, 7:30 AM)30.39 "Hg (Aug 16, 7:30 AM)
Low52 °F (Aug 22, 2:30 AM)20% (Aug 27, 5:00 PM)29.83 "Hg (Aug 17, 4:30 PM)
Average70 °F73%30.08 "Hg
* Reported Aug 15 8:00 AM — Aug 30 8:00 AM, Pratteln, Weather by CustomWeather, © 2016

Note: Actual official high and low records may vary slightly from our data, if they occured in-between our weather recording intervals... More about our weather records

Advertising

Pratteln Weather History for the Previous 24 Hours

Scroll right to see more
 ConditionsComfort  
Time TempWeatherWind HumidityBarometerVisibility
8:00 AM
Tue, Aug 30
59 °FPartly sunny.5 mph94%30.21 "HgN/A
7:30 AM59 °FPassing clouds.5 mph88%30.18 "HgN/A
7:00 AM61 °FClear.5 mph88%30.18 "Hg10 mi
6:30 AM61 °FClear.7 mph83%30.18 "Hg10 mi
6:00 AM61 °FClear.3 mph83%30.18 "Hg10 mi
5:30 AM61 °FPassing clouds.5 mph83%30.18 "HgN/A
5:00 AM63 °FClear.5 mph77%30.18 "Hg10 mi
4:30 AM63 °FClear.5 mph77%30.18 "Hg10 mi
4:00 AM61 °FClear.5 mph83%30.18 "Hg10 mi
3:30 AM61 °FClear.6 mph83%30.18 "Hg10 mi
3:00 AM61 °FPassing clouds.5 mph88%30.18 "HgN/A
2:30 AM59 °FClear.6 mph94%30.18 "Hg10 mi
2:00 AM57 °FClear.6 mph94%30.21 "Hg10 mi
1:30 AM57 °FClear.2 mph88%30.21 "Hg10 mi
1:00 AM59 °FClear.No wind82%30.21 "Hg10 mi
12:30 AM57 °FClear.3 mph94%30.21 "Hg10 mi
12:00 AM57 °FClear.1 mph88%30.21 "Hg10 mi
11:30 PM
Mon, Aug 29
59 °FPassing clouds.No wind82%30.21 "HgN/A
11:00 PM63 °FClear.1 mph73%30.18 "Hg10 mi
10:30 PM63 °FClear.3 mph68%30.18 "Hg10 mi
10:00 PM66 °FClear.2 mph60%30.18 "Hg10 mi
9:30 PM68 °FClear.1 mph56%30.18 "Hg10 mi
9:00 PM70 °FBroken clouds.7 mph57%30.15 "HgN/A
8:30 PM70 °FPartly sunny.7 mph57%30.15 "HgN/A
8:00 PM72 °FPartly sunny.7 mph53%30.15 "HgN/A
7:30 PM72 °FPartly sunny.7 mph53%30.12 "HgN/A
7:00 PM73 °FBroken clouds.9 mph50%30.12 "HgN/A
6:30 PM73 °FPartly sunny.9 mph50%30.12 "HgN/A
6:00 PM73 °FBroken clouds.10 mph53%30.12 "HgN/A
5:30 PM73 °FPartly sunny.9 mph50%30.15 "HgN/A
5:00 PM75 °FBroken clouds.12 mph47%30.12 "HgN/A
4:00 PM75 °FBroken clouds.12 mph50%30.12 "HgN/A
3:30 PM75 °FBroken clouds.10 mph54%30.12 "HgN/A
3:00 PM75 °FBroken clouds.8 mph54%30.15 "HgN/A
2:30 PM73 °FBroken clouds.12 mph57%30.15 "HgN/A
2:00 PM73 °FBroken clouds.9 mph57%30.15 "HgN/A
1:30 PM72 °FBroken clouds.7 mph61%30.15 "HgN/A
1:00 PM72 °FBroken clouds.9 mph61%30.15 "HgN/A
12:30 PM70 °FBroken clouds.10 mph64%30.15 "HgN/A
12:00 PM70 °FPartly sunny.10 mph64%30.15 "HgN/A
11:30 AM70 °FPartly sunny.12 mph69%30.15 "HgN/A
11:00 AM70 °FPartly sunny.9 mph64%30.15 "HgN/A
10:30 AM70 °FPartly sunny.12 mph64%30.15 "HgN/A
10:00 AM70 °FPartly sunny.12 mph69%30.12 "HgN/A
9:30 AM70 °FPartly sunny.13 mph69%30.12 "HgN/A
9:00 AM70 °FPartly sunny.10 mph69%30.12 "HgN/A
Weather by CustomWeather, © 2016

See weather overviewHow to use our weather pages